Netzbetreibername:;Netze Duisburg GmbH
Netz- oder Umspannebene:;NS
Lastgangtyp:;Summenlast der nicht leistungsgemessenen Kunden
gesetzliche Grundlage:;� 23c Abs. 3 Nr. 3 EnWG
Einheit:;kW
;
Datum;Wert
01.01.2021 00:00;94.913
01.01.2021 00:15;95.926
01.01.2021 00:30;93.776
01.01.2021 00:45;92.756
01.01.2021 01:00;91.388
01.01.2021 01:15;89.892
01.01.2021 01:30;88.162
01.01.2021 01:45;86.170
01.01.2021 02:00;83.918
01.01.2021 02:15;81.730
01.01.2021 02:30;79.586
01.01.2021 02:45;77.881
01.01.2021 03:00;76.206
01.01.2021 03:15;74.627
01.01.2021 03:30;73.615
01.01.2021 03:45;72.299
01.01.2021 04:00;71.126
01.01.2021 04:15;69.920
01.01.2021 04:30;69.087
01.01.2021 04:45;68.211
01.01.2021 05:00;67.658
01.01.2021 05:15;66.220
01.01.2021 05:30;65.261
01.01.2021 05:45;64.215
01.01.2021 06:00;63.546
01.01.2021 06:15;62.044
01.01.2021 06:30;62.301
01.01.2021 06:45;61.837
01.01.2021 07:00;62.867
01.01.2021 07:15;64.113
01.01.2021 07:30;65.489
01.01.2021 07:45;67.142
01.01.2021 08:00;69.445
01.01.2021 08:15;72.349
01.01.2021 08:30;77.236
01.01.2021 08:45;80.789
01.01.2021 09:00;85.643
01.01.2021 09:15;90.972
01.01.2021 09:30;95.074
01.01.2021 09:45;99.772
01.01.2021 10:00;104.328
01.01.2021 10:15;108.587
01.01.2021 10:30;112.927
01.01.2021 10:45;116.994
01.01.2021 11:00;121.281
01.01.2021 11:15;125.628
01.01.2021 11:30;130.190
01.01.2021 11:45;132.734
01.01.2021 12:00;134.828
01.01.2021 12:15;137.140
01.01.2021 12:30;138.163
01.01.2021 12:45;137.310
01.01.2021 13:00;137.634
01.01.2021 13:15;137.152
01.01.2021 13:30;136.569
01.01.2021 13:45;135.432
01.01.2021 14:00;138.092
01.01.2021 14:15;138.724
01.01.2021 14:30;137.529
01.01.2021 14:45;135.962
01.01.2021 15:00;136.088
01.01.2021 15:15;136.224
01.01.2021 15:30;135.039
01.01.2021 15:45;135.111
01.01.2021 16:00;132.970
01.01.2021 16:15;136.225
01.01.2021 16:30;139.175
01.01.2021 16:45;143.300
01.01.2021 17:00;143.966
01.01.2021 17:15;145.501
01.01.2021 17:30;147.086
01.01.2021 17:45;147.641
01.01.2021 18:00;146.945
01.01.2021 18:15;147.106
01.01.2021 18:30;146.386
01.01.2021 18:45;143.628
01.01.2021 19:00;143.008
01.01.2021 19:15;141.279
01.01.2021 19:30;138.647
01.01.2021 19:45;136.443
01.01.2021 20:00;132.420
01.01.2021 20:15;130.279
01.01.2021 20:30;129.639
01.01.2021 20:45;128.032
01.01.2021 21:00;127.479
01.01.2021 21:15;127.025
01.01.2021 21:30;125.651
01.01.2021 21:45;124.570
01.01.2021 22:00;120.679
01.01.2021 22:15;116.943
01.01.2021 22:30;113.474
01.01.2021 22:45;108.911
01.01.2021 23:00;104.929
01.01.2021 23:15;102.420
01.01.2021 23:30;97.659
01.01.2021 23:45;93.155
02.01.2021 00:00;89.031
02.01.2021 00:15;84.791
02.01.2021 00:30;81.774
02.01.2021 00:45;79.162
02.01.2021 01:00;76.993
02.01.2021 01:15;74.721
02.01.2021 01:30;72.910
02.01.2021 01:45;71.673
02.01.2021 02:00;70.472
02.01.2021 02:15;69.361
02.01.2021 02:30;68.185
02.01.2021 02:45;67.780
02.01.2021 03:00;67.411
02.01.2021 03:15;67.061
02.01.2021 03:30;66.744
02.01.2021 03:45;66.283
02.01.2021 04:00;66.394
02.01.2021 04:15;66.150
02.01.2021 04:30;66.135
02.01.2021 04:45;66.445
02.01.2021 05:00;66.661
02.01.2021 05:15;66.053
02.01.2021 05:30;65.363
02.01.2021 05:45;64.723
02.01.2021 06:00;65.174
02.01.2021 06:15;64.806
02.01.2021 06:30;65.683
02.01.2021 06:45;66.683
02.01.2021 07:00;69.079
02.01.2021 07:15;71.500
02.01.2021 07:30;75.220
02.01.2021 07:45;78.224
02.01.2021 08:00;82.364
02.01.2021 08:15;89.598
02.01.2021 08:30;93.383
02.01.2021 08:45;97.269
02.01.2021 09:00;103.190
02.01.2021 09:15;108.883
02.01.2021 09:30;113.591
02.01.2021 09:45;117.008
02.01.2021 10:00;120.770
02.01.2021 10:15;124.841
02.01.2021 10:30;127.989
02.01.2021 10:45;130.652
02.01.2021 11:00;134.129
02.01.2021 11:15;136.223
02.01.2021 11:30;139.887
02.01.2021 11:45;142.604
02.01.2021 12:00;144.749
02.01.2021 12:15;145.523
02.01.2021 12:30;147.738
02.01.2021 12:45;147.840
02.01.2021 13:00;148.021
02.01.2021 13:15;147.936
02.01.2021 13:30;147.255
02.01.2021 13:45;146.422
02.01.2021 14:00;148.862
02.01.2021 14:15;150.523
02.01.2021 14:30;150.780
02.01.2021 14:45;150.080
02.01.2021 15:00;149.364
02.01.2021 15:15;148.812
02.01.2021 15:30;148.327
02.01.2021 15:45;146.972
02.01.2021 16:00;145.490
02.01.2021 16:15;146.741
02.01.2021 16:30;148.666
02.01.2021 16:45;151.764
02.01.2021 17:00;153.372
02.01.2021 17:15;153.922
02.01.2021 17:30;156.111
02.01.2021 17:45;155.870
02.01.2021 18:00;154.878
02.01.2021 18:15;154.771
02.01.2021 18:30;153.823
02.01.2021 18:45;150.310
02.01.2021 19:00;149.188
02.01.2021 19:15;146.425
02.01.2021 19:30;143.470
02.01.2021 19:45;141.601
02.01.2021 20:00;137.728
02.01.2021 20:15;135.340
02.01.2021 20:30;134.175
02.01.2021 20:45;131.747
02.01.2021 21:00;129.822
02.01.2021 21:15;130.138
02.01.2021 21:30;128.609
02.01.2021 21:45;127.584
02.01.2021 22:00;123.878
02.01.2021 22:15;120.636
02.01.2021 22:30;116.661
02.01.2021 22:45;113.347
02.01.2021 23:00;108.806
02.01.2021 23:15;105.375
02.01.2021 23:30;101.481
02.01.2021 23:45;97.449
03.01.2021 00:00;93.473
03.01.2021 00:15;89.558
03.01.2021 00:30;85.813
03.01.2021 00:45;82.381
03.01.2021 01:00;79.299
03.01.2021 01:15;77.258
03.01.2021 01:30;75.099
03.01.2021 01:45;72.966
03.01.2021 02:00;71.744
03.01.2021 02:15;70.363
03.01.2021 02:30;69.169
03.01.2021 02:45;68.502
03.01.2021 03:00;67.351
03.01.2021 03:15;67.042
03.01.2021 03:30;66.542
03.01.2021 03:45;66.226
03.01.2021 04:00;66.016
03.01.2021 04:15;65.167
03.01.2021 04:30;65.110
03.01.2021 04:45;64.788
03.01.2021 05:00;64.845
03.01.2021 05:15;64.276
03.01.2021 05:30;63.473
03.01.2021 05:45;62.659
03.01.2021 06:00;62.789
03.01.2021 06:15;62.203
03.01.2021 06:30;62.846
03.01.2021 06:45;62.720
03.01.2021 07:00;65.129
03.01.2021 07:15;66.877
03.01.2021 07:30;70.165
03.01.2021 07:45;72.741
03.01.2021 08:00;76.897
03.01.2021 08:15;84.757
03.01.2021 08:30;87.961
03.01.2021 08:45;93.116
03.01.2021 09:00;98.297
03.01.2021 09:15;104.417
03.01.2021 09:30;109.072
03.01.2021 09:45;114.759
03.01.2021 10:00;119.998
03.01.2021 10:15;125.711
03.01.2021 10:30;129.689
03.01.2021 10:45;133.705
03.01.2021 11:00;138.028
03.01.2021 11:15;142.743
03.01.2021 11:30;145.997
03.01.2021 11:45;148.969
03.01.2021 12:00;151.687
03.01.2021 12:15;154.544
03.01.2021 12:30;155.032
03.01.2021 12:45;156.040
03.01.2021 13:00;156.505
03.01.2021 13:15;155.958
03.01.2021 13:30;155.072
03.01.2021 13:45;153.330
03.01.2021 14:00;155.670
03.01.2021 14:15;157.015
03.01.2021 14:30;157.773
03.01.2021 14:45;156.123
03.01.2021 15:00;154.484
03.01.2021 15:15;152.487
03.01.2021 15:30;151.276
03.01.2021 15:45;150.616
03.01.2021 16:00;148.237
03.01.2021 16:15;148.132
03.01.2021 16:30;150.446
03.01.2021 16:45;154.766
03.01.2021 17:00;158.135
03.01.2021 17:15;158.873
03.01.2021 17:30;160.828
03.01.2021 17:45;160.209
03.01.2021 18:00;159.434
03.01.2021 18:15;158.142
03.01.2021 18:30;156.834
03.01.2021 18:45;154.714
03.01.2021 19:00;153.193
03.01.2021 19:15;151.033
03.01.2021 19:30;148.149
03.01.2021 19:45;145.535
03.01.2021 20:00;142.509
03.01.2021 20:15;138.393
03.01.2021 20:30;137.952
03.01.2021 20:45;134.585
03.01.2021 21:00;131.512
03.01.2021 21:15;129.891
03.01.2021 21:30;128.693
03.01.2021 21:45;127.614
03.01.2021 22:00;123.675
03.01.2021 22:15;119.770
03.01.2021 22:30;114.273
03.01.2021 22:45;109.986
03.01.2021 23:00;104.840
03.01.2021 23:15;100.441
03.01.2021 23:30;95.764
03.01.2021 23:45;90.559
04.01.2021 00:00;86.837
04.01.2021 00:15;82.887
04.01.2021 00:30;79.488
04.01.2021 00:45;76.726
04.01.2021 01:00;74.418
04.01.2021 01:15;72.754
04.01.2021 01:30;71.052
04.01.2021 01:45;69.754
04.01.2021 02:00;69.069
04.01.2021 02:15;67.861
04.01.2021 02:30;67.308
04.01.2021 02:45;67.098
04.01.2021 03:00;67.223
04.01.2021 03:15;66.933
04.01.2021 03:30;67.531
04.01.2021 03:45;67.895
04.01.2021 04:00;68.924
04.01.2021 04:15;69.690
04.01.2021 04:30;70.893
04.01.2021 04:45;71.564
04.01.2021 05:00;74.770
04.01.2021 05:15;74.457
04.01.2021 05:30;76.010
04.01.2021 05:45;77.281
04.01.2021 06:00;80.542
04.01.2021 06:15;82.168
04.01.2021 06:30;84.752
04.01.2021 06:45;86.201
04.01.2021 07:00;90.311
04.01.2021 07:15;92.920
04.01.2021 07:30;94.992
04.01.2021 07:45;97.218
04.01.2021 08:00;100.166
04.01.2021 08:15;105.932
04.01.2021 08:30;108.050
04.01.2021 08:45;111.051
04.01.2021 09:00;114.621
04.01.2021 09:15;117.455
04.01.2021 09:30;119.369
04.01.2021 09:45;120.732
04.01.2021 10:00;122.648
04.01.2021 10:15;125.118
04.01.2021 10:30;127.607
04.01.2021 10:45;129.079
04.01.2021 11:00;131.148
04.01.2021 11:15;133.212
04.01.2021 11:30;134.907
04.01.2021 11:45;136.307
04.01.2021 12:00;139.684
04.01.2021 12:15;141.275
04.01.2021 12:30;142.771
04.01.2021 12:45;142.914
04.01.2021 13:00;143.228
04.01.2021 13:15;143.281
04.01.2021 13:30;141.648
04.01.2021 13:45;141.155
04.01.2021 14:00;144.848
04.01.2021 14:15;147.021
04.01.2021 14:30;147.124
04.01.2021 14:45;145.924
04.01.2021 15:00;146.274
04.01.2021 15:15;145.395
04.01.2021 15:30;145.021
04.01.2021 15:45;144.851
04.01.2021 16:00;144.451
04.01.2021 16:15;145.903
04.01.2021 16:30;148.290
04.01.2021 16:45;149.314
04.01.2021 17:00;151.905
04.01.2021 17:15;153.508
04.01.2021 17:30;154.858
04.01.2021 17:45;156.712
04.01.2021 18:00;156.511
04.01.2021 18:15;155.177
04.01.2021 18:30;153.825
04.01.2021 18:45;152.741
04.01.2021 19:00;151.412
04.01.2021 19:15;149.776
04.01.2021 19:30;146.286
04.01.2021 19:45;143.394
04.01.2021 20:00;138.014
04.01.2021 20:15;136.190
04.01.2021 20:30;135.940
04.01.2021 20:45;134.078
04.01.2021 21:00;131.700
04.01.2021 21:15;131.083
04.01.2021 21:30;129.598
04.01.2021 21:45;129.038
04.01.2021 22:00;124.855
04.01.2021 22:15;120.594
04.01.2021 22:30;115.927
04.01.2021 22:45;111.129
04.01.2021 23:00;105.609
04.01.2021 23:15;101.061
04.01.2021 23:30;96.141
04.01.2021 23:45;90.939
05.01.2021 00:00;86.970
05.01.2021 00:15;83.944
05.01.2021 00:30;80.797
05.01.2021 00:45;77.600
05.01.2021 01:00;74.989
05.01.2021 01:15;73.143
05.01.2021 01:30;71.497
05.01.2021 01:45;70.376
05.01.2021 02:00;69.728
05.01.2021 02:15;68.726
05.01.2021 02:30;68.064
05.01.2021 02:45;67.542
05.01.2021 03:00;67.378
05.01.2021 03:15;67.331
05.01.2021 03:30;67.459
05.01.2021 03:45;67.984
05.01.2021 04:00;68.393
05.01.2021 04:15;69.286
05.01.2021 04:30;70.185
05.01.2021 04:45;71.315
05.01.2021 05:00;73.923
05.01.2021 05:15;73.938
05.01.2021 05:30;75.457
05.01.2021 05:45;76.655
05.01.2021 06:00;79.747
05.01.2021 06:15;80.845
05.01.2021 06:30;83.765
05.01.2021 06:45;85.498
05.01.2021 07:00;89.341
05.01.2021 07:15;92.348
05.01.2021 07:30;94.549
05.01.2021 07:45;96.790
05.01.2021 08:00;100.119
05.01.2021 08:15;105.138
05.01.2021 08:30;107.431
05.01.2021 08:45;110.486
05.01.2021 09:00;112.809
05.01.2021 09:15;115.726
05.01.2021 09:30;118.515
05.01.2021 09:45;120.005
05.01.2021 10:00;121.450
05.01.2021 10:15;123.031
05.01.2021 10:30;124.634
05.01.2021 10:45;126.989
05.01.2021 11:00;129.469
05.01.2021 11:15;131.675
05.01.2021 11:30;133.801
05.01.2021 11:45;135.885
05.01.2021 12:00;137.568
05.01.2021 12:15;139.964
05.01.2021 12:30;142.250
05.01.2021 12:45;142.516
05.01.2021 13:00;142.055
05.01.2021 13:15;142.719
05.01.2021 13:30;141.405
05.01.2021 13:45;141.530
05.01.2021 14:00;143.370
05.01.2021 14:15;146.059
05.01.2021 14:30;146.037
05.01.2021 14:45;144.863
05.01.2021 15:00;145.539
05.01.2021 15:15;145.623
05.01.2021 15:30;146.150
05.01.2021 15:45;146.503
05.01.2021 16:00;145.925
05.01.2021 16:15;147.810
05.01.2021 16:30;148.379
05.01.2021 16:45;152.181
05.01.2021 17:00;152.327
05.01.2021 17:15;153.016
05.01.2021 17:30;154.996
05.01.2021 17:45;156.625
05.01.2021 18:00;155.970
05.01.2021 18:15;155.937
05.01.2021 18:30;154.288
05.01.2021 18:45;151.063
05.01.2021 19:00;150.283
05.01.2021 19:15;149.507
05.01.2021 19:30;147.431
05.01.2021 19:45;144.582
05.01.2021 20:00;141.042
05.01.2021 20:15;138.252
05.01.2021 20:30;137.076
05.01.2021 20:45;134.447
05.01.2021 21:00;133.125
05.01.2021 21:15;132.050
05.01.2021 21:30;130.739
05.01.2021 21:45;127.626
05.01.2021 22:00;125.546
05.01.2021 22:15;121.991
05.01.2021 22:30;116.683
05.01.2021 22:45;110.963
05.01.2021 23:00;106.367
05.01.2021 23:15;101.497
05.01.2021 23:30;96.423
05.01.2021 23:45;91.439
06.01.2021 00:00;87.232
06.01.2021 00:15;83.207
06.01.2021 00:30;80.241
06.01.2021 00:45;77.020
06.01.2021 01:00;74.393
06.01.2021 01:15;72.620
06.01.2021 01:30;70.784
06.01.2021 01:45;69.352
06.01.2021 02:00;68.981
06.01.2021 02:15;67.905
06.01.2021 02:30;67.147
06.01.2021 02:45;66.687
06.01.2021 03:00;66.776
06.01.2021 03:15;66.677
06.01.2021 03:30;66.802
06.01.2021 03:45;67.402
06.01.2021 04:00;67.934
06.01.2021 04:15;68.527
06.01.2021 04:30;70.028
06.01.2021 04:45;71.225
06.01.2021 05:00;73.481
06.01.2021 05:15;73.898
06.01.2021 05:30;75.314
06.01.2021 05:45;76.714
06.01.2021 06:00;79.782
06.01.2021 06:15;81.812
06.01.2021 06:30;83.969
06.01.2021 06:45;85.767
06.01.2021 07:00;89.091
06.01.2021 07:15;91.762
06.01.2021 07:30;94.549
06.01.2021 07:45;97.192
06.01.2021 08:00;100.596
06.01.2021 08:15;105.587
06.01.2021 08:30;108.370
06.01.2021 08:45;110.597
06.01.2021 09:00;113.536
06.01.2021 09:15;116.278
06.01.2021 09:30;117.516
06.01.2021 09:45;119.057
06.01.2021 10:00;120.723
06.01.2021 10:15;123.124
06.01.2021 10:30;125.260
06.01.2021 10:45;126.123
06.01.2021 11:00;128.455
06.01.2021 11:15;131.615
06.01.2021 11:30;134.011
06.01.2021 11:45;134.464
06.01.2021 12:00;136.231
06.01.2021 12:15;138.080
06.01.2021 12:30;139.752
06.01.2021 12:45;141.358
06.01.2021 13:00;140.904
06.01.2021 13:15;140.347
06.01.2021 13:30;139.040
06.01.2021 13:45;138.335
06.01.2021 14:00;142.104
06.01.2021 14:15;142.459
06.01.2021 14:30;143.666
06.01.2021 14:45;143.122
06.01.2021 15:00;143.387
06.01.2021 15:15;142.877
06.01.2021 15:30;141.886
06.01.2021 15:45;141.485
06.01.2021 16:00;140.492
06.01.2021 16:15;141.215
06.01.2021 16:30;144.800
06.01.2021 16:45;148.836
06.01.2021 17:00;150.852
06.01.2021 17:15;153.433
06.01.2021 17:30;154.831
06.01.2021 17:45;158.176
06.01.2021 18:00;157.254
06.01.2021 18:15;155.019
06.01.2021 18:30;154.516
06.01.2021 18:45;153.898
06.01.2021 19:00;153.433
06.01.2021 19:15;150.528
06.01.2021 19:30;148.319
06.01.2021 19:45;146.112
06.01.2021 20:00;141.291
06.01.2021 20:15;139.150
06.01.2021 20:30;138.063
06.01.2021 20:45;135.517
06.01.2021 21:00;132.892
06.01.2021 21:15;132.218
06.01.2021 21:30;130.132
06.01.2021 21:45;128.861
06.01.2021 22:00;125.561
06.01.2021 22:15;121.496
06.01.2021 22:30;116.047
06.01.2021 22:45;109.897
06.01.2021 23:00;104.699
06.01.2021 23:15;100.046
06.01.2021 23:30;96.011
06.01.2021 23:45;92.048
07.01.2021 00:00;87.390
07.01.2021 00:15;83.863
07.01.2021 00:30;80.494
07.01.2021 00:45;78.260
07.01.2021 01:00;75.347
07.01.2021 01:15;73.403
07.01.2021 01:30;71.862
07.01.2021 01:45;70.907
07.01.2021 02:00;70.186
07.01.2021 02:15;68.915
07.01.2021 02:30;68.163
07.01.2021 02:45;67.765
07.01.2021 03:00;67.623
07.01.2021 03:15;67.683
07.01.2021 03:30;68.050
07.01.2021 03:45;68.322
07.01.2021 04:00;69.191
07.01.2021 04:15;69.963
07.01.2021 04:30;71.046
07.01.2021 04:45;72.218
07.01.2021 05:00;74.585
07.01.2021 05:15;74.726
07.01.2021 05:30;75.597
07.01.2021 05:45;77.231
07.01.2021 06:00;80.918
07.01.2021 06:15;83.087
07.01.2021 06:30;85.291
07.01.2021 06:45;87.057
07.01.2021 07:00;91.182
07.01.2021 07:15;93.932
07.01.2021 07:30;96.228
07.01.2021 07:45;99.561
07.01.2021 08:00;103.102
07.01.2021 08:15;108.093
07.01.2021 08:30;109.589
07.01.2021 08:45;112.555
07.01.2021 09:00;114.562
07.01.2021 09:15;117.619
07.01.2021 09:30;118.689
07.01.2021 09:45;120.373
07.01.2021 10:00;122.293
07.01.2021 10:15;123.774
07.01.2021 10:30;125.312
07.01.2021 10:45;127.162
07.01.2021 11:00;128.361
07.01.2021 11:15;130.785
07.01.2021 11:30;133.605
07.01.2021 11:45;134.870
07.01.2021 12:00;136.787
07.01.2021 12:15;138.671
07.01.2021 12:30;140.437
07.01.2021 12:45;141.331
07.01.2021 13:00;140.858
07.01.2021 13:15;140.615
07.01.2021 13:30;139.542
07.01.2021 13:45;139.260
07.01.2021 14:00;142.831
07.01.2021 14:15;143.893
07.01.2021 14:30;145.080
07.01.2021 14:45;144.572
07.01.2021 15:00;144.824
07.01.2021 15:15;143.536
07.01.2021 15:30;142.214
07.01.2021 15:45;141.504
07.01.2021 16:00;141.490
07.01.2021 16:15;141.832
07.01.2021 16:30;144.825
07.01.2021 16:45;148.210
07.01.2021 17:00;151.392
07.01.2021 17:15;153.427
07.01.2021 17:30;153.761
07.01.2021 17:45;155.320
07.01.2021 18:00;155.497
07.01.2021 18:15;154.244
07.01.2021 18:30;152.260
07.01.2021 18:45;152.310
07.01.2021 19:00;150.783
07.01.2021 19:15;149.885
07.01.2021 19:30;147.126
07.01.2021 19:45;144.406
07.01.2021 20:00;140.129
07.01.2021 20:15;137.517
07.01.2021 20:30;136.981
07.01.2021 20:45;133.401
07.01.2021 21:00;131.742
07.01.2021 21:15;131.095
07.01.2021 21:30;129.798
07.01.2021 21:45;127.232
07.01.2021 22:00;125.884
07.01.2021 22:15;121.693
07.01.2021 22:30;116.542
07.01.2021 22:45;111.196
07.01.2021 23:00;105.674
07.01.2021 23:15;100.919
07.01.2021 23:30;96.265
07.01.2021 23:45;91.671
08.01.2021 00:00;87.490
08.01.2021 00:15;83.860
08.01.2021 00:30;80.840
08.01.2021 00:45;77.870
08.01.2021 01:00;75.336
08.01.2021 01:15;73.753
08.01.2021 01:30;71.885
08.01.2021 01:45;70.744
08.01.2021 02:00;69.745
08.01.2021 02:15;68.763
08.01.2021 02:30;68.121
08.01.2021 02:45;67.407
08.01.2021 03:00;67.671
08.01.2021 03:15;67.530
08.01.2021 03:30;67.435
08.01.2021 03:45;68.202
08.01.2021 04:00;69.249
08.01.2021 04:15;69.770
08.01.2021 04:30;70.375
08.01.2021 04:45;71.497
08.01.2021 05:00;73.941
08.01.2021 05:15;74.837
08.01.2021 05:30;75.758
08.01.2021 05:45;76.969
08.01.2021 06:00;79.858
08.01.2021 06:15;81.619
08.01.2021 06:30;84.931
08.01.2021 06:45;86.506
08.01.2021 07:00;90.667
08.01.2021 07:15;94.123
08.01.2021 07:30;96.172
08.01.2021 07:45;98.583
08.01.2021 08:00;102.156
08.01.2021 08:15;107.138
08.01.2021 08:30;109.951
08.01.2021 08:45;112.045
08.01.2021 09:00;114.797
08.01.2021 09:15;117.535
08.01.2021 09:30;119.239
08.01.2021 09:45;120.917
08.01.2021 10:00;122.645
08.01.2021 10:15;125.218
08.01.2021 10:30;127.410
08.01.2021 10:45;128.420
08.01.2021 11:00;130.487
08.01.2021 11:15;133.479
08.01.2021 11:30;135.326
08.01.2021 11:45;136.482
08.01.2021 12:00;138.513
08.01.2021 12:15;140.680
08.01.2021 12:30;141.301
08.01.2021 12:45;141.526
08.01.2021 13:00;141.479
08.01.2021 13:15;141.447
08.01.2021 13:30;140.432
08.01.2021 13:45;140.147
08.01.2021 14:00;144.449
08.01.2021 14:15;146.722
08.01.2021 14:30;146.933
08.01.2021 14:45;146.409
08.01.2021 15:00;146.121
08.01.2021 15:15;146.473
08.01.2021 15:30;146.102
08.01.2021 15:45;145.962
08.01.2021 16:00;144.302
08.01.2021 16:15;145.218
08.01.2021 16:30;146.354
08.01.2021 16:45;149.495
08.01.2021 17:00;152.720
08.01.2021 17:15;151.784
08.01.2021 17:30;153.201
08.01.2021 17:45;154.193
08.01.2021 18:00;154.245
08.01.2021 18:15;153.696
08.01.2021 18:30;152.053
08.01.2021 18:45;151.387
08.01.2021 19:00;149.789
08.01.2021 19:15;147.190
08.01.2021 19:30;144.518
08.01.2021 19:45;141.609
08.01.2021 20:00;138.079
08.01.2021 20:15;136.387
08.01.2021 20:30;136.250
08.01.2021 20:45;133.709
08.01.2021 21:00;131.627
08.01.2021 21:15;132.956
08.01.2021 21:30;130.789
08.01.2021 21:45;129.227
08.01.2021 22:00;126.322
08.01.2021 22:15;122.631
08.01.2021 22:30;118.352
08.01.2021 22:45;113.875
08.01.2021 23:00;109.437
08.01.2021 23:15;105.590
08.01.2021 23:30;101.421
08.01.2021 23:45;97.322
09.01.2021 00:00;93.485
09.01.2021 00:15;89.258
09.01.2021 00:30;85.685
09.01.2021 00:45;82.451
09.01.2021 01:00;80.199
09.01.2021 01:15;77.865
09.01.2021 01:30;76.388
09.01.2021 01:45;74.278
09.01.2021 02:00;73.096
09.01.2021 02:15;72.055
09.01.2021 02:30;70.969
09.01.2021 02:45;70.269
09.01.2021 03:00;69.382
09.01.2021 03:15;68.753
09.01.2021 03:30;68.445
09.01.2021 03:45;68.630
09.01.2021 04:00;69.162
09.01.2021 04:15;69.283
09.01.2021 04:30;69.623
09.01.2021 04:45;69.728
09.01.2021 05:00;70.534
09.01.2021 05:15;69.260
09.01.2021 05:30;68.422
09.01.2021 05:45;68.105
09.01.2021 06:00;68.463
09.01.2021 06:15;68.101
09.01.2021 06:30;69.249
09.01.2021 06:45;69.889
09.01.2021 07:00;72.891
09.01.2021 07:15;75.530
09.01.2021 07:30;79.001
09.01.2021 07:45;82.579
09.01.2021 08:00;88.857
09.01.2021 08:15;94.174
09.01.2021 08:30;98.845
09.01.2021 08:45;104.376
09.01.2021 09:00;109.560
09.01.2021 09:15;114.868
09.01.2021 09:30;119.194
09.01.2021 09:45;122.966
09.01.2021 10:00;126.220
09.01.2021 10:15;130.165
09.01.2021 10:30;132.429
09.01.2021 10:45;134.747
09.01.2021 11:00;137.564
09.01.2021 11:15;140.590
09.01.2021 11:30;143.913
09.01.2021 11:45;145.570
09.01.2021 12:00;145.967
09.01.2021 12:15;148.071
09.01.2021 12:30;149.216
09.01.2021 12:45;149.861
09.01.2021 13:00;150.050
09.01.2021 13:15;150.231
09.01.2021 13:30;151.249
09.01.2021 13:45;149.319
09.01.2021 14:00;152.249
09.01.2021 14:15;154.069
09.01.2021 14:30;154.315
09.01.2021 14:45;153.662
09.01.2021 15:00;152.575
09.01.2021 15:15;151.448
09.01.2021 15:30;151.087
09.01.2021 15:45;150.346
09.01.2021 16:00;148.011
09.01.2021 16:15;148.939
09.01.2021 16:30;150.450
09.01.2021 16:45;153.424
09.01.2021 17:00;156.908
09.01.2021 17:15;157.589
09.01.2021 17:30;159.055
09.01.2021 17:45;159.698
09.01.2021 18:00;160.053
09.01.2021 18:15;160.461
09.01.2021 18:30;157.490
09.01.2021 18:45;154.322
09.01.2021 19:00;151.844
09.01.2021 19:15;150.442
09.01.2021 19:30;146.989
09.01.2021 19:45;142.704
09.01.2021 20:00;139.711
09.01.2021 20:15;136.865
09.01.2021 20:30;135.792
09.01.2021 20:45;134.142
09.01.2021 21:00;132.066
09.01.2021 21:15;131.814
09.01.2021 21:30;129.734
09.01.2021 21:45;129.157
09.01.2021 22:00;127.097
09.01.2021 22:15;122.729
09.01.2021 22:30;118.686
09.01.2021 22:45;116.053
09.01.2021 23:00;111.669
09.01.2021 23:15;108.101
09.01.2021 23:30;103.922
09.01.2021 23:45;100.305
10.01.2021 00:00;95.260
10.01.2021 00:15;91.772
10.01.2021 00:30;88.480
10.01.2021 00:45;85.625
10.01.2021 01:00;82.826
10.01.2021 01:15;80.452
10.01.2021 01:30;78.589
10.01.2021 01:45;76.873
10.01.2021 02:00;75.439
10.01.2021 02:15;73.169
10.01.2021 02:30;72.094
10.01.2021 02:45;70.907
10.01.2021 03:00;70.254
10.01.2021 03:15;69.368
10.01.2021 03:30;68.921
10.01.2021 03:45;68.958
10.01.2021 04:00;69.163
10.01.2021 04:15;68.892
10.01.2021 04:30;68.795
10.01.2021 04:45;68.013
10.01.2021 05:00;68.223
10.01.2021 05:15;67.099
10.01.2021 05:30;66.315
10.01.2021 05:45;65.681
10.01.2021 06:00;65.014
10.01.2021 06:15;64.370
10.01.2021 06:30;65.288
10.01.2021 06:45;65.710
10.01.2021 07:00;67.769
10.01.2021 07:15;70.468
10.01.2021 07:30;73.706
10.01.2021 07:45;76.843
10.01.2021 08:00;81.467
10.01.2021 08:15;88.344
10.01.2021 08:30;94.268
10.01.2021 08:45;100.288
10.01.2021 09:00;106.404
10.01.2021 09:15;112.671
10.01.2021 09:30;118.170
10.01.2021 09:45;122.388
10.01.2021 10:00;127.112
10.01.2021 10:15;132.502
10.01.2021 10:30;137.114
10.01.2021 10:45;140.883
10.01.2021 11:00;146.389
10.01.2021 11:15;150.216
10.01.2021 11:30;152.489
10.01.2021 11:45;154.630
10.01.2021 12:00;155.619
10.01.2021 12:15;157.175
10.01.2021 12:30;158.535
10.01.2021 12:45;159.552
10.01.2021 13:00;158.415
10.01.2021 13:15;156.424
10.01.2021 13:30;155.359
10.01.2021 13:45;153.012
10.01.2021 14:00;154.379
10.01.2021 14:15;154.972
10.01.2021 14:30;154.185
10.01.2021 14:45;153.065
10.01.2021 15:00;151.383
10.01.2021 15:15;150.260
10.01.2021 15:30;149.392
10.01.2021 15:45;148.031